#timestamp,LO_Frequency,Hit,StdDev 
1583823615.5,286046999.0,N
1583823635.4,286046998.0,N
1583823655.2,286046997.3,N
1583823675.0,286046997.7,N
1583823675.9,286046997.7,N
1583823695.8,286046998.0,N
1583823715.6,286046993.4,Y
1583823735.5,286046997.3,P
1583823755.3,286046998.8,P
1583823775.1,286047000.2,N
1583823795.9,286047002.4,N
1583823815.7,286047000.2,N
1583823835.5,286047001.2,N
1583823855.4,286047000.6,N
1583823875.2,286047002.7,N
1583823895.1,286047001.1,N
1583823896.0,286047001.1,N
1583823915.8,286046998.8,N
1583823935.6,286047001.1,N
1583823955.5,286047001.2,N
1583823975.3,286047002.0,N
1583824025.2,286047004.3,E
1583824035.1,286047000.6,N
1583824055.8,286046994.9,P
1583824075.7,286046996.4,N
1583824095.5,286046995.9,N
1583824115.4,286046994.9,N
1583824135.2,286046994.9,N
1583824155.0,286046997.9,N
1583824155.9,286046997.9,N
1583824175.8,286046998.0,N
1583824195.6,286046997.5,N
1583824215.5,286046995.6,N
1583824235.3,286046997.5,N
1583824255.1,286046995.0,Y
1583824275.9,286047000.7,P
1583824295.7,286046999.5,N
1583824315.6,286046998.1,N
1583824335.4,286046998.8,N
1583824355.2,286047000.5,N
1583824375.1,286047001.1,N
1583824376.0,286047001.1,N
1583824395.8,286047000.8,N
1583824415.7,286046999.9,N
1583824435.5,286047002.5,N
1583824455.3,286047000.0,N
1583824475.2,286046998.9,N
1583824495.0,286046999.6,N
1583824495.9,286046999.6,N
1583824515.8,286046997.7,N
1583824535.6,286046997.6,N
1583824555.4,286046999.2,N
1583824575.3,286046996.8,N
1583824595.1,286046995.4,Y
1583824615.9,286046997.3,P
1583824635.7,286046996.9,N
1583824655.5,286046998.8,N
1583824675.4,286047001.1,N
1583824695.2,286047000.2,N
1583824715.0,286047002.5,N
1583824715.9,286047002.5,N
1583824735.8,286047000.0,N
1583824755.6,286046999.7,N
1583824775.5,286046999.7,N
1583824795.3,286047002.8,N
1583824815.1,286047002.3,N
1583824835.9,286047002.5,N
1583824855.7,286047000.5,N
1583824875.6,286047006.0,Y
1583824895.4,286047001.9,P
1583824915.2,286047003.9,P
1583824935.1,286047001.4,N
1583824936.0,286047001.4,N
1583824955.8,286047002.2,N
1583824975.7,286047000.6,N
1583824995.5,286047000.2,N
1583825015.3,286047000.9,N
1583825035.2,286047000.8,N
1583825055.0,286047001.0,N
1583825055.9,286047001.0,N
1583825075.7,286047001.0,N
1583825095.6,286046998.9,N
1583825115.4,286047000.7,N
1583825135.3,286047001.0,N
1583825155.1,286046999.7,N
1583825175.8,286047000.3,N
1583825195.7,286046998.3,N
1583825215.5,286046999.8,N
1583825235.4,286046999.7,N
1583825255.2,286046998.3,N
1583825275.0,286046998.1,N
1583825275.9,286046998.1,N
1583825295.8,286046998.9,N
1583825315.6,286046999.2,N
1583825335.4,286046998.3,N
1583825355.3,286046998.5,N
1583825405.2,286046997.9,E
1583825415.1,286046996.5,N
1583825416.0,286046996.5,P
1583825435.8,286046998.3,P
1583825455.7,286046998.6,N
1583825475.5,286047001.5,N
1583825495.3,286047002.3,N
1583825515.2,286047001.0,N
1583825535.0,286046998.3,N
1583825535.9,286046998.3,N
1583825555.8,286047000.5,N
1583825575.6,286047003.7,N
1583825595.4,286047002.6,N
1583825615.3,286047003.5,N
1583825635.1,286047002.9,N
1583825655.8,286047005.7,N
1583825675.7,286047005.7,N
1583825695.5,286047005.2,N
1583825715.4,286047004.7,N
1583825735.2,286047005.0,N
1583825755.0,286047007.1,N
1583825755.9,286047007.1,N
1583825775.8,286047007.5,N
1583825795.6,286047005.6,N
1583825815.4,286047003.6,N
1583825835.3,286047007.1,N
1583825855.1,286047006.8,N
1583825875.9,286047006.4,N
1583825895.7,286047007.1,N
1583825915.5,286047004.7,N
1583825935.4,286047005.4,N
1583825955.2,286047007.2,N
1583825975.0,286047007.0,N
1583825976.0,286047007.0,N
1583825995.8,286047004.6,N
1583826015.6,286047005.2,N
1583826035.5,286047008.6,Y
1583826055.3,286046999.7,P
1583826075.1,286047000.0,N
1583826095.9,286047000.3,N
1583826115.7,286047002.4,N
1583826135.6,286047001.3,N
1583826155.4,286047002.5,N
1583826175.2,286047000.9,N
1583826195.1,286047002.8,N
1583826196.0,286047002.8,N
1583826215.8,286047000.0,N
1583826235.7,286047001.2,N
1583826255.5,286046998.7,N
1583826275.3,286047000.2,N
1583826295.2,286047000.3,N
1583826315.9,286046998.4,N
1583826335.7,286046997.0,N
1583826355.6,286046997.2,N
1583826375.4,286046999.6,N
1583826395.3,286047000.5,N
1583826415.1,286047000.3,N
1583826416.0,286047000.3,N
1583826435.8,286047002.2,N
1583826455.7,286047002.8,N
1583826475.5,286046998.6,N
1583826495.4,286046996.7,N
1583826515.2,286046997.3,N
1583826535.0,286046998.6,N
1583826535.9,286046998.6,N
1583826555.8,286046998.8,N
1583826575.6,286047000.2,N
1583826595.5,286047001.1,N
1583826615.3,286047000.9,N
1583826635.1,286047001.2,N
1583826655.9,286046998.4,N
1583826675.7,286047001.0,N
1583826695.5,286047002.3,N
1583826715.4,286047000.0,N
1583826735.2,286047000.2,N
1583826755.1,286047004.1,N
1583826756.0,286047004.1,N
1583826775.8,286047000.1,N
1583826795.7,286046999.4,N
1583826815.5,286046997.5,N
1583826835.3,286046998.7,N
1583826855.2,286046999.2,N
1583826875.9,286046999.5,N
1583826895.7,286046997.9,N
1583826915.6,286046997.0,N
1583826935.4,286046996.8,N
1583826955.3,286046997.5,N
1583826975.1,286046997.6,N
1583826976.0,286046997.6,N
1583826995.8,286046999.5,N
1583827015.7,286046996.8,N
1583827035.5,286046999.0,N
1583827055.3,286046999.9,N
1583827075.2,286047000.7,N
1583827095.0,286047000.4,N
1583827095.9,286047000.4,N
1583827115.8,286046998.6,N
1583827135.6,286046999.5,N
1583827155.4,286047000.0,N
1583827175.3,286047000.3,N
1583827195.1,286047001.2,N
